| time (UTC) | temp F | wind direction | speed knots | gust knots | rain 1hr in | rain 24hr in | rain mn in | humidity % | barometer mb |
| 20260504223919 | 84 | 96 | 2.6 | 7.0 | 0.00 | 0.32 | 0.32 | 78 | 1010.6 |
| 20260504223414 | 84 | 99 | 6.1 | 12.2 | 0.00 | 0.32 | 0.32 | 78 | 1010.6 |
| 20260504222910 | 84 | 36 | 6.1 | 11.3 | 0.00 | 0.32 | 0.32 | 79 | 1010.6 |
| 20260504222408 | 84 | 87 | 3.5 | 13.0 | 0.00 | 0.32 | 0.32 | 79 | 1010.6 |
| 20260504221906 | 84 | 57 | 4.3 | 12.2 | 0.00 | 0.32 | 0.32 | 78 | 1010.6 |
| 20260504221402 | 84 | 45 | 3.5 | 7.8 | 0.00 | 0.32 | 0.32 | 78 | 1010.6 |
| 20260504220859 | 84 | 63 | 2.6 | 5.2 | 0.00 | 0.32 | 0.32 | 78 | 1010.6 |
| 20260504220356 | 84 | 41 | 4.3 | 9.6 | 0.00 | 0.32 | 0.32 | 78 | 1010.2 |
| 20260504215853 | 84 | 93 | 3.5 | 7.8 | 0.00 | 0.32 | 0.32 | 79 | 1010.2 |
| 20260504215349 | 83 | 112 | 2.6 | 5.2 | 0.00 | 0.32 | 0.32 | 79 | 1010.2 |
| 20260504214846 | 83 | 54 | 2.6 | 6.1 | 0.00 | 0.32 | 0.32 | 79 | 1010.6 |
| 20260504214343 | 83 | 42 | 4.3 | 9.6 | 0.00 | 0.32 | 0.32 | 79 | 1010.6 |
| 20260504213839 | 83 | 49 | 4.3 | 7.8 | 0.00 | 0.32 | 0.32 | 79 | 1010.6 |
| 20260504213335 | 83 | 106 | 5.2 | 9.6 | 0.00 | 0.32 | 0.32 | 79 | 1010.6 |
| 20260504212833 | 83 | 104 | 2.6 | 7.0 | 0.00 | 0.32 | 0.32 | 80 | 1010.6 |
| 20260504212328 | 83 | 87 | 5.2 | 8.7 | 0.00 | 0.32 | 0.32 | 80 | 1010.6 |
| 20260504211827 | 83 | 68 | 7.0 | 13.9 | 0.00 | 0.32 | 0.32 | 80 | 1010.6 |
| 20260504211328 | 83 | 59 | 5.2 | 11.3 | 0.00 | 0.32 | 0.32 | 82 | 1010.6 |
| 20260504210825 | 83 | 62 | 2.6 | 6.1 | 0.00 | 0.32 | 0.32 | 82 | 1010.2 |
| 20260504210322 | 83 | 65 | 7.0 | 17.4 | 0.00 | 0.32 | 0.32 | 82 | 1010.2 |
| 20260504205819 | 83 | 28 | 4.3 | 7.8 | 0.00 | 0.32 | 0.32 | 82 | 1010.6 |
| 20260504205317 | 82 | 64 | 3.5 | 8.7 | 0.00 | 0.32 | 0.32 | 83 | 1010.6 |
| 20260504204815 | 82 | 39 | 6.1 | 10.4 | 0.00 | 0.32 | 0.32 | 83 | 1010.2 |
| 20260504204313 | 82 | 34 | 4.3 | 16.5 | 0.00 | 0.32 | 0.32 | 84 | 1010.6 |
| 20260504203812 | 82 | 42 | 4.3 | 13.0 | 0.00 | 0.32 | 0.32 | 85 | 1010.6 |
| 20260504203309 | 81 | 82 | 4.3 | 7.0 | 0.00 | 0.32 | 0.32 | 87 | 1010.2 |
| 20260504202804 | 81 | 59 | 1.7 | 6.1 | 0.00 | 0.32 | 0.32 | 87 | 1010.2 |
| 20260504202302 | 81 | 45 | 2.6 | 7.0 | 0.00 | 0.32 | 0.32 | 87 | 1010.2 |
| 20260504201758 | 81 | 89 | 4.3 | 9.6 | 0.00 | 0.32 | 0.32 | 87 | 1010.2 |
| 20260504201255 | 81 | 50 | 3.5 | 7.0 | 0.00 | 0.32 | 0.32 | 87 | 1009.9 |
| 20260504200753 | 80 | 112 | 3.5 | 7.8 | 0.00 | 0.32 | 0.32 | 87 | 1009.9 |
| 20260504200249 | 80 | 34 | 3.5 | 7.8 | 0.00 | 0.32 | 0.32 | 87 | 1009.9 |
| 20260504195746 | 80 | 40 | 2.6 | 7.0 | 0.00 | 0.32 | 0.32 | 88 | 1009.9 |
| 20260504195241 | 80 | 41 | 1.7 | 3.5 | 0.00 | 0.32 | 0.32 | 88 | 1009.9 |
| 20260504194739 | 80 | 80 | 0.9 | 4.3 | 0.00 | 0.32 | 0.32 | 88 | 1010.2 |
| 20260504194235 | 79 | 75 | 2.6 | 6.1 | 0.00 | 0.32 | 0.32 | 88 | 1010.2 |
| 20260504193731 | 79 | 82 | 1.7 | 3.5 | 0.00 | 0.32 | 0.32 | 89 | 1010.2 |
| 20260504193229 | 79 | 93 | 2.6 | 4.3 | 0.00 | 0.32 | 0.32 | 89 | 1010.2 |
| 20260504192727 | 78 | 54 | 1.7 | 5.2 | 0.00 | 0.32 | 0.32 | 89 | 1010.2 |
| 20260504192225 | 78 | 54 | 1.7 | 3.5 | 0.00 | 0.32 | 0.32 | 90 | 1010.2 |
| 20260504191723 | 78 | 95 | 0.9 | 2.6 | 0.00 | 0.32 | 0.32 | 90 | 1010.2 |
| 20260504191220 | 77 | 155 | 1.7 | 3.5 | 0.00 | 0.32 | 0.32 | 91 | 1010.2 |
| 20260504190715 | 77 | 159 | 0.0 | 0.0 | 0.00 | 0.32 | 0.32 | 91 | 1010.2 |
| 20260504190212 | 76 | 159 | 0.0 | 0.0 | 0.00 | 0.32 | 0.32 | 91 | 1010.2 |
| 20260504185708 | 76 | 159 | 0.0 | 0.0 | 0.00 | 0.32 | 0.32 | 92 | 1010.2 |
| 20260504185205 | 76 | 159 | 0.9 | 2.6 | 0.00 | 0.32 | 0.32 | 92 | 1010.2 |
| 20260504184701 | 75 | 159 | 0.0 | 0.0 | 0.00 | 0.32 | 0.32 | 92 | 1010.2 |
| 20260504184156 | 75 | 159 | 0.0 | 0.0 | 0.00 | 0.32 | 0.32 | 92 | 1010.2 |
| 20260504183653 | 75 | 159 | 0.0 | 0.9 | 0.00 | 0.32 | 0.32 | 92 | 1010.2 |
| 20260504183150 | 75 | 159 | 0.0 | 0.0 | 0.00 | 0.32 | 0.32 | 92 | 1010.2 |
| 20260504182648 | 75 | 159 | 0.0 | 0.0 | 0.00 | 0.32 | 0.32 | 92 | 1009.9 |
| 20260504182145 | 75 | 159 | 0.0 | 0.0 | 0.00 | 0.32 | 0.32 | 92 | 1009.9 |
| 20260504181643 | 75 | 159 | 0.0 | 0.0 | 0.00 | 0.32 | 0.32 | 92 | 1010.2 |
| 20260504181140 | 75 | 159 | 0.0 | 0.0 | 0.00 | 0.32 | 0.32 | 92 | 1009.9 |
| 20260504180639 | 75 | 159 | 0.0 | 0.0 | 0.00 | 0.32 | 0.32 | 93 | 1009.9 |
| 20260504180138 | 75 | 159 | 0.0 | 0.0 | 0.00 | 0.32 | 0.32 | 93 | 1009.9 |
| 20260504175634 | 74 | 159 | 0.0 | 0.0 | 0.00 | 0.32 | 0.32 | 93 | 1009.9 |
| 20260504175131 | 74 | 159 | 0.0 | 0.0 | 0.00 | 0.32 | 0.32 | 93 | 1009.9 |
| 20260504174630 | 74 | 159 | 0.0 | 0.0 | 0.00 | 0.32 | 0.32 | 92 | 1009.9 |
| 20260504174125 | 74 | 159 | 0.0 | 0.0 | 0.00 | 0.32 | 0.32 | 92 | 1009.5 |
| 20260504173623 | 74 | 159 | 0.0 | 0.0 | 0.00 | 0.32 | 0.32 | 92 | 1009.5 |
| 20260504173120 | 74 | 159 | 0.0 | 0.0 | 0.00 | 0.32 | 0.32 | 92 | 1009.5 |
| 20260504172616 | 74 | 159 | 0.0 | 0.0 | 0.00 | 0.32 | 0.32 | 92 | 1009.5 |
| 20260504172113 | 74 | 159 | 0.0 | 0.0 | 0.00 | 0.32 | 0.32 | 92 | 1009.5 |
| 20260504171609 | 74 | 159 | 0.0 | 0.0 | 0.00 | 0.32 | 0.32 | 92 | 1009.5 |
| 20260504171107 | 74 | 159 | 0.0 | 0.0 | 0.00 | 0.32 | 0.32 | 92 | 1009.5 |
| 20260504170602 | 74 | 159 | 0.0 | 0.0 | 0.00 | 0.32 | 0.32 | 92 | 1009.9 |
| 20260504150946 | 74 | 159 | 0.9 | 1.7 | 0.00 | 0.32 | 0.32 | 92 | 1011.9 |
| 20260504150443 | 75 | 159 | 0.9 | 1.7 | 0.00 | 0.32 | 0.32 | 92 | 1011.9 |
| 20260504140910 | 74 | 159 | 0.0 | 0.0 | 0.00 | 0.29 | 0.29 | 91 | 1013.4 |
| 20260504140405 | 74 | 159 | 0.0 | 0.0 | 0.47 | 0.27 | 0.27 | 91 | 1013.7 |
| 20260504130331 | 77 | 35 | 0.0 | 0.0 | 0.00 | 0.00 | 0.00 | 92 | 1013.7 |
| 20260504120254 | 77 | 35 | 0.0 | 0.9 | 0.00 | 3.78 | 3.78 | 91 | 1013.7 |
| 20260504110218 | 76 | 61 | 0.0 | 0.0 | 0.00 | 3.75 | 3.75 | 91 | 1013.0 |
| 20260504100142 | 76 | 56 | 2.6 | 4.3 | 0.47 | 3.58 | 3.58 | 88 | 1013.4 |
| 20260504090104 | 78 | 100 | 4.3 | 10.4 | 0.00 | 3.30 | 3.30 | 89 | 1011.2 |
| 20260504081535 | 77 | 51 | 7.0 | 17.4 | 0.47 | 3.14 | 3.14 | 87 | 1011.6 |
| 20260504081030 | 77 | 82 | 5.2 | 12.2 | 0.00 | 3.12 | 3.12 | 87 | 1011.6 |
| 20260504080527 | 77 | 69 | 5.2 | 14.8 | 0.94 | 3.09 | 3.09 | 88 | 1011.6 |
| 20260504050340 | 77 | 125 | 0.9 | 2.6 | 0.00 | 1.48 | 1.48 | 89 | 1009.9 |
| 20260504045838 | 77 | 128 | 3.5 | 7.8 | 0.00 | 1.46 | 1.46 | 89 | 1009.9 |
| 20260504045338 | 77 | 110 | 2.6 | 7.0 | 0.47 | 1.44 | 1.44 | 90 | 1009.9 |
| 20260504044835 | 77 | 82 | 1.7 | 7.0 | 0.94 | 1.40 | 1.40 | 90 | 1009.9 |
| 20260504044332 | 77 | 116 | 2.6 | 4.3 | 0.47 | 1.38 | 1.38 | 90 | 1010.2 |
| 20260504043830 | 77 | 163 | 1.7 | 5.2 | 0.94 | 1.34 | 1.34 | 90 | 1009.9 |
| 20260504043326 | 78 | 40 | 2.6 | 4.3 | 3.31 | 1.19 | 1.19 | 90 | 1009.9 |
| 20260504042824 | 78 | 124 | 0.9 | 4.3 | 3.78 | 0.95 | 0.95 | 90 | 1010.2 |
| 20260504042320 | 78 | 88 | 2.6 | 5.2 | 3.78 | 0.83 | 0.83 | 89 | 1009.9 |
| 20260504041816 | 78 | 99 | 7.0 | 13.0 | 3.78 | 0.77 | 0.77 | 89 | 1009.9 |
| 20260504041312 | 79 | 71 | 5.2 | 13.0 | 3.78 | 0.58 | 0.58 | 89 | 1009.9 |
| 20260504040809 | 79 | 58 | 7.0 | 14.8 | 0.00 | 0.57 | 0.57 | 89 | 1009.9 |
| 20260504040306 | 79 | 42 | 7.8 | 14.8 | 0.00 | 0.57 | 0.57 | 89 | 1009.5 |
| 20260504035802 | 79 | 23 | 6.1 | 15.6 | 0.47 | 0.56 | 0.56 | 89 | 1009.5 |
| 20260504035259 | 80 | 32 | 7.0 | 15.6 | 0.00 | 0.56 | 0.56 | 88 | 1009.5 |
| 20260504034757 | 80 | 77 | 6.1 | 14.8 | 0.00 | 0.56 | 0.56 | 87 | 1009.5 |
| 20260504034254 | 80 | 48 | 8.7 | 13.9 | 0.00 | 0.56 | 0.56 | 87 | 1009.5 |
| 20260504033751 | 81 | 321 | 0.0 | 1.7 | 0.00 | 0.56 | 0.56 | 86 | 1009.5 |
| 20260504033249 | 81 | 321 | 0.0 | 0.0 | 0.00 | 0.56 | 0.56 | 86 | 1009.9 |
| 20260504032745 | 80 | 321 | 0.0 | 1.7 | 0.00 | 0.56 | 0.56 | 86 | 1009.9 |
| 20260504032242 | 80 | 321 | 1.7 | 3.5 | 0.00 | 0.56 | 0.56 | 86 | 1009.9 |
| 20260504031739 | 80 | 66 | 0.0 | 0.0 | 0.00 | 0.56 | 0.56 | 86 | 1009.9 |
| 20260504031237 | 79 | 66 | 0.9 | 1.7 | 0.00 | 0.56 | 0.56 | 86 | 1009.9 |
| 20260504030732 | 79 | 66 | 1.7 | 3.5 | 0.00 | 0.56 | 0.56 | 87 | 1009.9 |
| 20260504030230 | 79 | 66 | 0.9 | 2.6 | 0.00 | 0.56 | 0.56 | 88 | 1010.2 |
| 20260504025726 | 79 | 65 | 2.6 | 4.3 | 0.00 | 0.56 | 0.56 | 88 | 1010.2 |
| 20260504025223 | 79 | 45 | 4.3 | 7.8 | 0.00 | 0.56 | 0.56 | 88 | 1010.2 |
| 20260504024720 | 79 | 52 | 3.5 | 7.8 | 0.00 | 0.56 | 0.56 | 89 | 1010.2 |
| 20260504024217 | 79 | 20 | 1.7 | 7.8 | 0.00 | 0.56 | 0.56 | 89 | 1010.2 |
| 20260504023714 | 80 | 44 | 3.5 | 8.7 | 0.00 | 0.55 | 0.55 | 88 | 1010.2 |
| 20260504023209 | 80 | 30 | 3.5 | 7.8 | 0.94 | 0.53 | 0.53 | 87 | 1010.2 |
| 20260504022706 | 82 | 43 | 3.5 | 9.6 | 0.00 | 0.47 | 0.47 | 83 | 1010.6 |
| 20260504022202 | 82 | 43 | 3.5 | 9.6 | 0.00 | 0.47 | 0.47 | 83 | 1010.6 |
| 20260504021700 | 82 | 182 | 0.9 | 5.2 | 0.00 | 0.47 | 0.47 | 81 | 1010.2 |
| 20260504021156 | 84 | 152 | 3.5 | 7.8 | 0.00 | 0.47 | 0.47 | 79 | 1010.6 |
| 20260504020653 | 86 | 158 | 1.7 | 7.0 | 0.00 | 0.47 | 0.47 | 79 | 1010.6 |
| 20260504020149 | 86 | 98 | 1.7 | 4.3 | 0.00 | 0.47 | 0.47 | 80 | 1010.6 |
| 20260504015646 | 86 | 138 | 1.7 | 3.5 | 0.00 | 0.47 | 0.47 | 80 | 1010.6 |
| 20260504015142 | 86 | 66 | 1.7 | 5.2 | 0.00 | 0.47 | 0.47 | 82 | 1010.6 |
| 20260504014638 | 85 | 349 | 0.9 | 3.5 | 0.00 | 0.47 | 0.47 | 84 | 1010.6 |
| 20260504014136 | 84 | 163 | 0.9 | 6.1 | 0.00 | 0.47 | 0.47 | 84 | 1010.6 |
| 20260504013633 | 83 | 182 | 0.0 | 0.9 | 0.00 | 0.47 | 0.47 | 86 | 1010.6 |
| 20260504013130 | 82 | 182 | 0.0 | 0.0 | 0.00 | 0.47 | 0.47 | 87 | 1010.6 |
| 20260504012627 | 82 | 182 | 0.0 | 0.9 | 0.00 | 0.47 | 0.47 | 87 | 1010.9 |
| 20260504012125 | 81 | 182 | 0.0 | 0.0 | 0.00 | 0.47 | 0.47 | 88 | 1010.9 |
| 20260504011621 | 81 | 182 | 0.0 | 0.0 | 0.00 | 0.47 | 0.47 | 88 | 1010.9 |
| 20260504011118 | 81 | 182 | 0.0 | 0.0 | 0.00 | 0.47 | 0.47 | 88 | 1011.2 |
| 20260504010614 | 80 | 182 | 0.0 | 0.0 | 0.00 | 0.47 | 0.47 | 89 | 1011.2 |
| 20260504010110 | 79 | 182 | 0.0 | 0.0 | 0.00 | 0.46 | 0.46 | 88 | 1011.2 |
| 20260504005607 | 79 | 182 | 0.0 | 0.9 | 0.47 | 0.45 | 0.45 | 88 | 1011.2 |
| 20260504005104 | 79 | 182 | 0.9 | 2.6 | 1.89 | 0.39 | 0.39 | 87 | 1011.6 |
| 20260504004602 | 79 | 67 | 0.0 | 1.7 | 1.42 | 0.33 | 0.33 | 86 | 1011.6 |
| 20260504004059 | 81 | 129 | 5.2 | 8.7 | 5.20 | 0.17 | 0.17 | 84 | 1011.6 |
| 20260504003555 | 84 | 101 | 5.2 | 11.3 | 0.47 | 0.11 | 0.11 | 81 | 1011.6 |
| 20260504003052 | 87 | 67 | 5.2 | 11.3 | 0.47 | 0.06 | 0.06 | 76 | 1011.2 |
| 20260504002548 | 88 | 42 | 3.5 | 7.8 | 0.00 | 0.06 | 0.06 | 75 | 1011.2 |
| 20260504002046 | 89 | 138 | 4.3 | 7.8 | 0.00 | 0.06 | 0.06 | 75 | 1011.2 |
| 20260504001544 | 89 | 107 | 1.7 | 3.5 | 0.00 | 0.06 | 0.06 | 75 | 1011.2 |
| 20260504001039 | 88 | 139 | 2.6 | 3.5 | 0.00 | 0.06 | 0.06 | 76 | 1011.2 |
| 20260504000537 | 88 | 118 | 2.6 | 4.3 | 0.00 | 0.06 | 0.06 | 77 | 1011.6 |
| 20260504000034 | 87 | 98 | 1.7 | 4.3 | 0.00 | 0.06 | 0.06 | 77 | 1011.6 |
| 20260503235533 | 87 | 128 | 0.9 | 3.5 | 0.00 | 0.06 | 0.06 | 79 | 1011.6 |
| 20260503235029 | 85 | 128 | 0.9 | 1.7 | 0.00 | 0.06 | 0.06 | 82 | 1011.6 |
| 20260503234527 | 84 | 128 | 0.0 | 1.7 | 0.00 | 0.06 | 0.06 | 83 | 1011.6 |
| 20260503234025 | 84 | 128 | 1.7 | 2.6 | 0.00 | 0.06 | 0.06 | 84 | 1011.6 |
| 20260503233521 | 83 | 128 | 1.7 | 2.6 | 0.00 | 0.06 | 0.06 | 85 | 1011.9 |
| 20260503233017 | 83 | 128 | 1.7 | 3.5 | 0.00 | 0.06 | 0.06 | 85 | 1011.9 |
| 20260503232514 | 83 | 128 | 1.7 | 3.5 | 0.00 | 0.06 | 0.06 | 85 | 1011.9 |
| 20260503232012 | 84 | 128 | 1.7 | 3.5 | 0.00 | 0.06 | 0.06 | 85 | 1011.9 |
| 20260503231509 | 84 | 128 | 1.7 | 3.5 | 0.00 | 0.05 | 0.05 | 83 | 1012.3 |
| 20260503231006 | 84 | 131 | 2.6 | 3.5 | 0.00 | 0.05 | 0.05 | 81 | 1012.3 |
| 20260503230502 | 85 | 117 | 2.6 | 4.3 | 0.00 | 0.05 | 0.05 | 79 | 1012.3 |
| 20260503230000 | 85 | 123 | 3.5 | 6.1 | 0.00 | 0.05 | 0.05 | 79 | 1012.3 |
| 20260503225456 | 86 | 159 | 1.7 | 4.3 | 0.00 | 0.05 | 0.05 | 78 | 1012.3 |
| 20260503224952 | 86 | 44 | 3.5 | 6.1 | 0.00 | 0.05 | 0.05 | 77 | 1012.3 |
| 20260503224449 | 87 | 119 | 1.7 | 7.0 | 0.00 | 0.05 | 0.05 | 76 | 1012.3 |